This is the latest recevied weather packets stored in our database for station/object K6LOT-13. If no packets are shown the sender has not sent any weather packets the latest 10 day(s).
| Time | Temp. | Humidity | Pressure | Rain* | Wind** | Luminosity | Snow |
|---|---|---|---|---|---|---|---|
| 1788636784 | 31.67° C | 39% | 1015.2 hPa | 0 mm | - | - | - |
| 1788636732 | 31.67° C | 39% | 1015.1 hPa | 0 mm | - | - | - |
| 1788635840 | 31.67° C | 39% | 1015.3 hPa | 0 mm | - | - | - |
| 1788634887 | 31.11° C | 41% | 1015.7 hPa | 0 mm | - | - | - |
| 1788634626 | 31.11° C | 41% | 1015.7 hPa | 0 mm | - | - | - |
| 1788634270 | 30.56° C | 43% | 1015.7 hPa | 0 mm | - | - | - |
| 1788633961 | 30.56° C | 43% | 1015.7 hPa | 0 mm | - | - | - |
| 1788633348 | 30° C | 46% | 1015.9 hPa | 0 mm | - | - | - |
| 1788633038 | 29.44° C | 46% | 1015.9 hPa | 0 mm | - | - | - |
| 1788632227 | 28.89° C | 49% | 1016.1 hPa | 0 mm | - | - | - |
| 1788631839 | 28.89° C | 48% | 1016.1 hPa | 0 mm | - | - | - |
| 1788631503 | 28.33° C | 49% | 1016.2 hPa | 0 mm | - | - | - |
| 1788631196 | 28.33° C | 52% | 1016.1 hPa | 0 mm | - | - | - |
| 1788630891 | 27.78° C | 51% | 1016 hPa | 0 mm | - | - | - |
| 1788630585 | 27.78° C | 53% | 1016 hPa | 0 mm | - | - | - |
| 1788630275 | 27.22° C | 54% | 1016 hPa | 0 mm | - | - | - |
| 1788629968 | 26.67° C | 55% | 1015.9 hPa | 0 mm | - | - | - |
| 1788629079 | 25° C | 60% | 1016 hPa | 0 mm | - | - | - |
| 1788628743 | 24.44° C | 62% | 1016 hPa | 0 mm | - | - | - |
| 1788628466 | 23.89° C | 65% | 1015.9 hPa | 0 mm | - | - | - |
| 1788628180 | 23.33° C | 67% | 1016 hPa | 0 mm | - | - | - |
| 1788628168 | 22.78° C | 69% | 1015.9 hPa | 0 mm | - | - | - |
| 1788627515 | 22.22° C | 71% | 1015.9 hPa | 0 mm | - | - | - |
| 1788626898 | 21.11° C | 74% | 1015.9 hPa | 0 mm | - | - | - |
| 1788626622 | 20.56° C | 75% | 1015.8 hPa | 0 mm | - | - | - |
* Rain latest hour (hover to see other rain measurements)
** Current wind speed in m/s (hover to see current wind gust speed)